Regional Weather Roundup
Issued by NWS

Home | Current Version | Previous Version | Graphics & Text | Print | Product List | Glossary On
Versions: 1 2 3 4 5 6 7 8 9 10 11 12 13 14 15 16 17 18 19 20 21 22 23 24 25 26 27 28 29 30 31 32 33 34 35 36 37 38 39 40 41 42 43 44 45 46 47 48 49 50
000
ASUS43 KBIS 240310
RWRND

NORTH DAKOTA REGIONAL WEATHER ROUNDUP
NATIONAL WEATHER SERVICE BISMARCK ND
1000 PM CDT SAT MAY 23 2015

NOTE: "FAIR" INDICATES FEW OR NO CLOUDS BELOW 12,000 FEET WITH NO
SIGNIFICANT WEATHER AND/OR OBSTRUCTIONS TO VISIBILITY.


NDZ001>003-009>011-017-240400-
NORTHWEST NORTH DAKOTA

CITY           SKY/WX    TMP DP  RH WIND       PRES   REMARKS
WILLISTON      CLOUDY    64  41  42 SE6       30.08S
MINOT          CLOUDY    64  45  49 S8        30.08R
MINOT AFB      CLOUDY    64  46  51 S10       30.07R
$$

NDZ018>021-031>035-040>046-240400-
SOUTHWEST NORTH DAKOTA

CITY           SKY/WX    TMP DP  RH WIND       PRES   REMARKS
BISMARCK       CLOUDY    58  50  75 SE8       30.10S
DICKINSON      MOCLDY    54  46  74 SE5       30.08R
GARRISON         N/A     58  46  64 S3        30.09S
HETTINGER ARPT CLOUDY    55  48  77 E9        30.10R
$$

NDZ004>008-012>016-024-026-027-054-240400-
NORTHEAST NORTH DAKOTA

CITY           SKY/WX    TMP DP  RH WIND       PRES   REMARKS
GRAND FORKS    MOCLDY    62  46  55 S8        30.09R
GRND FRKS AFB  MOCLDY    62  45  54 SW9       30.10R
DEVILS LAKE    CLOUDY    64  43  45 S7        30.10R
$$

NDZ022-023-025-028>030-036>039-047>053-240400-
SOUTHEAST NORTH DAKOTA

CITY           SKY/WX    TMP DP  RH WIND       PRES   REMARKS
FARGO          CLEAR     60  48  64 SE6       30.11S
JAMESTOWN      CLOUDY    61  50  67 CALM      30.11R
$$



USA.gov is the U.S. government's official web portal to all federal, state and local government web resources and services.